Location: Stull Observatory
(42.2506°N, 77.7903°W)
Time: 19:19:23
(UTC-04:00)

Daily predictions for brighter satellites

Satellite Brightness Start Highest point End
(mag) Time Altitude Azimuth Time Altitude Azimuth Time Altitude Azimuth
ATLAS 2AS CENTAUR R/B 3.7 20:15:55 10° NNW 20:23:19 39° NE 20:30:13 10° ESE
COSMOS 2428 3.0 20:21:24 10° S 20:26:47 44° ESE 20:32:13 10° NE
CZ-2D R/B 3.2 20:23:06 10° SSE 20:26:53 76° ENE 20:30:42 10° N
SL-16 R/B 4.2 20:22:51 10° WSW 20:27:57 33° NW 20:33:04 10° N
Spot 2 Rocket 4.4 20:25:02 10° SE 20:29:29 32° ENE 20:33:58 10° N
Cosmos 2333 4.4 20:24:40 10° S 20:30:05 49° ESE 20:35:30 10° NE
FREGAT/IRIS 4.1 20:27:44 10° S 20:30:31 40° W 20:33:20 10° NNW
NOSS 7 (D) 4.4 20:28:49 10° SW 20:32:19 86° NW 20:35:30 10° NE
Cosmos 1844 Rocket 2.9 20:29:00 10° NNW 20:34:37 58° ENE 20:40:11 10° SE
Cosmos 1844 4.2 20:29:11 10° NNW 20:34:39 46° ENE 20:40:09 10° SE
Cosmos 2263 Rocket 4.1 20:31:22 10° NW 20:36:15 30° WSW 20:41:07 10° SSW
Cosmos 1455 3.3 20:35:25 10° SE 20:38:33 25° E 20:41:44 10° NE
Cosmos 1892 3.2 20:39:47 10° N 20:43:31 42° ENE 20:47:13 10° SSE
Cosmos 2237 Rocket 3.4 20:39:45 10° SE 20:43:43 20° E 20:47:43 10° NE
Cosmos 2219 Rocket 2.5 20:39:14 10° S 20:44:31 43° ESE 20:49:49 10° NE
Cosmos 2074 Rocket 4.3 20:38:38 10° SSW 20:44:55 74° W 20:51:14 10° N
ERS-2 2.2 20:41:36 10° SSE 20:45:16 84° WSW 20:48:58 10° NNW
Lacrosse 5 4.4 20:43:38 10° NW 20:46:43 16° N 20:49:49 10° NNE
BREEZE-M DEB (TANK) 3.2 20:42:14 10° WNW 20:47:33 50° NNE 20:49:38 14° E
NOSS 2-1 (E) 3.1 20:45:50 10° SSW 20:49:25 62° ESE 20:53:23 10° NE
Cosmos 1408 4.4 20:47:05 10° NNE 20:49:26 16° ENE 20:50:51 13° E
Cosmos 1610 Rocket 4.4 20:45:10 10° S 20:51:17 84° E 20:57:29 10° N
Cosmos 2278 Rocket 3.3 20:46:36 10° N 20:51:30 29° NE 20:55:31 14° ESE
ATLAS CENTAUR R/B 2.2 20:48:51 10° SSE 20:51:47 23° ESE 20:54:48 10° ENE
Timation 1 Rocket 4.4 20:50:12 10° NNW 20:56:11 72° ENE 21:01:56 11° SSE
Cosmos 1666 Rocket 3.5 20:53:04 10° N 20:57:33 74° E 21:02:00 10° SSE
USA 186 1.2 20:55:47 10° S 20:57:59 65° W 21:00:14 10° NNW
Genesis I 4.4 20:54:52 10° NNW 20:58:30 30° NE 21:01:00 17° E
NOAA 11 4.5 20:53:39 10° SE 20:58:56 51° ENE 21:04:15 10° N
Resurs 1-3 3.5 20:54:57 10° SSE 20:59:19 77° ENE 21:03:43 10° N
H-2A R/B 3.5 20:58:30 14° E 21:01:04 20° ENE 21:04:37 10° NNE
NOSS 3-3 (A) 4.0 20:55:20 10° SSW 21:01:11 58° ESE 21:07:35 10° NE
NOSS 3-3 (C) 4.0 20:55:27 10° SSW 21:01:17 58° ESE 21:07:41 10° NE
OAO 2 Rocket 4.2 20:56:57 10° WSW 21:01:40 35° S 21:04:57 17° SE
Cosmos 1933 Rocket 4.5 20:59:38 10° NNE 21:03:30 30° ENE 21:05:47 19° ESE
YAOGAN 6 2.8 21:02:52 10° S 21:06:26 69° W 21:10:04 10° NNW
Meteor 2-21 Rocket 4.4 21:00:57 10° S 21:07:02 74° E 21:13:13 10° NNE
USA 267 4.1 21:06:19 10° ENE 21:11:30 25° SE 21:16:38 10° S
ERS-1 Rocket 4.3 21:10:18 17° E 21:12:29 23° ENE 21:16:23 10° NNE
Sich 1 3.3 21:08:25 10° NNW 21:12:40 68° W 21:16:54 10° S
SAR-Lupe-3 4.4 21:09:38 10° NNE 21:13:14 76° ESE 21:16:49 10° S
Nadezhda 3 Rocket 4.1 21:07:36 10° N 21:13:56 84° W 21:20:17 10° S
Cosmos 1340 3.6 21:11:45 10° SSW 21:15:26 51° WNW 21:19:10 10° N
Cosmos 1151 Rocket 3.4 21:13:26 15° SSE 21:16:37 42° E 21:20:39 10° NNE
Cosmos 220 Rocket 4.1 21:12:26 10° NNW 21:16:45 58° ENE 21:19:12 24° SE
Cosmos 2251 Rocket 3.9 21:12:11 10° NNW 21:17:32 66° WSW 21:22:50 10° S
Cosmos 1939 Rocket 3.6 21:17:05 10° S 21:20:50 50° W 21:24:39 10° NNW
Cosmos 1825 2.7 21:23:55 10° N 21:27:31 40° ENE 21:28:24 34° ESE
Meteor 2-3 Rocket 3.7 21:23:51 10° N 21:29:29 85° W 21:34:38 13° S
Cosmos 1633 Rocket 3.6 21:27:13 10° NNW 21:31:28 56° W 21:35:43 10° S
SL-16 R/B 3.6 21:33:18 20° E 21:33:18 20° E 21:36:23 10° NE
Cosmos 2098 Rocket 3.8 21:31:01 29° SE 21:32:22 35° E 21:36:06 10° NNE
Cosmos 2056 Rocket 4.4 21:32:53 28° ESE 21:33:47 29° E 21:38:24 10° NE
Cosmos 1869 3.8 21:34:42 37° ESE 21:35:19 39° E 21:39:05 10° NNE
Cosmos 2228 Rocket 2.9 21:32:02 13° S 21:35:53 75° E 21:40:18 10° NNE
SL-8 R/B 3.9 21:35:03 10° SW 21:39:38 47° SE 21:41:34 30° E
Cosmos 1515 Rocket 3.5 21:37:19 12° S 21:41:24 86° E 21:45:53 10° N
Cosmos 405 4.4 21:42:23 10° NNE 21:44:48 25° NE 21:44:48 25° NE
ARGOS 3.1 21:44:34 32° SE 21:47:02 66° ENE 21:52:21 10° N
Helios 1A 3.9 21:49:42 32° ENE 21:49:53 32° ENE 21:53:38 10° N
GEOS 3 Rocket 3.8 21:44:59 10° NE 21:50:12 50° ESE 21:55:16 10° SSW
Cosmos 1624 Rocket 4.3 21:50:09 39° SE 21:51:05 43° ESE 21:55:59 10° NNE
BREEZE-M DEB (TANK) 2.6 21:48:16 10° WNW 21:51:02 48° N 21:51:02 48° N
SL-08 RB Rocket 3.8 21:52:57 46° ESE 21:53:53 57° ENE 21:58:17 10° N
MetOp-B 4.1 21:51:53 37° SE 21:54:00 67° ENE 21:59:19 10° N
Resurs 01 Rocket 3.6 21:53:43 10° SSW 21:57:26 26° W 22:01:12 10° NW
Cosmos 1980 3.7 21:53:35 10° SSW 21:59:16 88° WNW 22:05:00 10° NNE
Cosmos 2297 4.3 21:56:18 10° N 22:01:39 40° ENE 22:02:58 35° E
Cosmos 1727 Rocket 4.0 21:56:38 10° N 22:02:47 64° E 22:04:57 40° SE
BREEZE-M DEB (TANK) 3.9 21:58:25 10° WNW 22:03:42 28° NNW 22:05:12 19° NNE
Cosmos 1959 Rocket 4.4 22:00:08 15° S 22:05:26 87° W 22:11:36 10° N
Cosmos 2333 Rocket 3.0 22:00:09 10° SW 22:05:38 51° WNW 22:11:10 10° NNE
Cosmos 2369 Rocket 4.3 22:09:13 10° NNE 22:11:41 13° NE 22:13:27 11° ENE
Meteor 2-10 Rocket 3.6 22:11:14 36° S 22:13:39 79° E 22:19:29 10° NNE
ATLAS 2AS CENTAUR R/B 3.3 22:07:02 10° NW 22:14:43 59° WSW 22:18:17 31° S
Cosmos 2218 Rocket 4.2 22:11:56 12° SSW 22:17:46 71° W 22:24:11 10° N
DMSP B5D2-2 4.2 22:13:03 10° NNE 22:18:05 52° E 22:18:05 52° E
SL-08 R/B 4.5 22:15:09 25° S 22:19:08 85° W 22:25:36 10° N
Cosmos 1862 3.9 22:15:11 10° N 22:18:24 46° NE 22:18:24 46° NE
Terra 3.0 22:21:55 29° ENE 22:21:55 29° ENE 22:25:32 10° N
Cosmos 1408 4.2 22:21:21 10° NNW 22:24:35 30° W 22:25:16 28° WSW
Cosmos 2237 Rocket 2.7 22:21:46 10° SW 22:27:17 58° WNW 22:32:51 10° NNE
Cosmos 2219 Rocket 4.1 22:23:40 10° WSW 22:28:35 30° NW 22:33:31 10° N
ATLAS CENTAUR R/B 3.1 22:27:21 10° WSW 22:30:35 29° NW 22:34:00 10° NNE
SPOT 5 2.7 22:30:51 71° NE 22:30:51 71° NE 22:35:08 10° N
Lacrosse 5 4.1 22:28:00 10° NNW 22:31:30 18° NNE 22:34:13 13° NE
SPOT 1/Viking Rocket 3.5 22:31:21 68° E 22:31:37 70° ENE 22:36:50 10° N
Cosmos 2366 rocket 4.4 22:27:19 17° SSW 22:32:07 60° W 22:38:21 10° N
USA 81 4.0 22:26:51 10° N 22:32:10 82° W 22:32:59 64° SSW
Cosmos 2278 Rocket 3.0 22:30:23 10° NW 22:35:45 44° WSW 22:37:22 35° SSW
Cosmos 405 Rocket 4.2 22:41:01 32° N 22:41:01 32° N 22:43:12 10° N
H-2A R/B 2.5 22:39:08 45° SW 22:40:07 52° W 22:45:01 10° NNW
NOSS 3-4 (A) 3.8 22:38:04 10° NW 22:45:08 81° NE 22:46:43 59° SE
NOSS 3-4 (C) 3.8 22:38:10 10° NW 22:45:15 81° NE 22:46:49 59° SE
ATLAS 5 CENTAUR R/B 4.2 22:43:23 10° NNW 22:47:38 20° NE 22:49:40 18° ENE
Cosmos 407 Rocket 3.5 22:42:56 10° NNW 22:48:01 71° WSW 22:48:01 71° WSW
ERS-1 Rocket 3.7 22:50:18 42° WSW 22:50:58 44° W 22:55:48 10° NNW
USA 267 3.1 22:48:26 10° NE 22:55:00 89° NW 23:01:34 10° SW
Cosmos 614 Rocket 4.2 22:52:15 10° NNW 22:56:51 64° NNE 22:56:51 64° NNE
Cosmos 676 Rocket 4.2 23:00:28 10° NNW 23:05:05 67° NW 23:05:05 67° NW
SL-19 R/B 4.4 23:09:46 63° WSW 23:09:46 63° WSW 23:15:17 10° NNW
Cosmos 2344 3.4 23:10:53 59° SSW 23:12:31 79° ESE 23:20:50 10° NE
Helios 1B rocket 4.0 23:11:37 10° N 23:14:22 34° NNW 23:14:22 34° NNW
SL-16 R/B 2.7 23:15:04 51° W 23:15:56 57° WNW 23:21:32 10° NNE
Cosmos 1452 Rocket 4.3 23:18:15 46° NNE 23:18:15 46° NNE 23:21:55 10° NNE
USA 234 3.4 23:27:52 59° ENE 23:28:31 62° NE 23:34:57 10° NW
Cosmos 1934 Rocket 4.1 23:31:58 70° NNW 23:31:58 70° NNW 23:37:22 10° N
Cosmos 1943 Rocket 3.5 23:28:04 10° N 23:32:07 31° NE 23:32:07 31° NE
CZ-2C R/B 4.1 23:39:38 38° NNW 23:39:38 38° NNW 23:42:36 10° NNW
SeaSat 1 4.2 23:55:37 26° NNE 23:55:37 26° NNE 23:58:34 10° N
